Location: Gorze? G�rny
(49.8500°N, 19.5000°E)
Time: 04:06:17
(UTC+00:00)

USA 215 - Pass Details

Date: 13 May 2021
Orbit: 1100 x 1107 km, 123.0° (Epoch: 22 June)

Event Time Altitude Azimuth Distance (km) Brightness Sun altitude
Rises 21:42:59 0° 103° (ESE) 3,913 5.9 -20.4°
Reaches altitude 10° 21:45:29 10° 100° (E) 2,957 5.3 -20.5°
Maximum altitude 21:51:54 64° 21° (NNE) 1,211 3.6 -20.8°
Drops below altitude 10° 21:58:21 10° 302° (WNW) 2,965 6.1 -21.0°
Sets 22:00:52 0° 299° (WNW) 3,925 6.7 -21.0°
